Time,TemperatureF,DewpointF,PressureIn,WindDirection,WindDirectionDegrees,WindSpeedMPH,WindSpeedGustMPH,Humidity,HourlyPrecipIn,Conditions,Clouds,dailyrainin,SoftwareType,DateUTC
2013-02-05 00:00:00,26.2,23.1,28.85,ESE,112,0.0,0.0,88,0.00,,,0.00,WUHU216WMR100,2013-02-05 05:00:00,
2013-02-05 00:01:00,26.2,23.1,28.85,ESE,112,0.0,0.0,88,0.00,,,0.00,WUHU216WMR100,2013-02-05 05:01:00,
2013-02-05 00:06:00,26.1,23.0,28.85,ESE,112,0.0,0.0,88,0.00,,,0.00,WUHU216WMR100,2013-02-05 05:06:00,
2013-02-05 00:11:00,26.1,23.0,28.85,ESE,112,0.0,0.0,88,0.00,,,0.00,WUHU216WMR100,2013-02-05 05:11:00,
2013-02-05 00:16:00,26.1,23.0,28.85,ESE,112,0.0,0.0,88,0.00,,,0.00,WUHU216WMR100,2013-02-05 05:16:00,
2013-02-05 00:21:00,26.1,23.0,28.82,ESE,112,0.0,0.0,88,0.00,,,0.00,WUHU216WMR100,2013-02-05 05:21:00,
2013-02-05 00:26:00,26.1,23.0,28.82,ESE,112,0.0,0.0,88,0.00,,,0.00,WUHU216WMR100,2013-02-05 05:26:00,
2013-02-05 00:31:00,26.1,23.0,28.82,ESE,112,0.0,0.0,88,0.00,,,0.00,WUHU216WMR100,2013-02-05 05:31:00,
2013-02-05 00:36:00,26.2,23.1,28.82,ESE,112,0.0,0.0,88,0.00,,,0.00,WUHU216WMR100,2013-02-05 05:36:00,
2013-02-05 00:41:00,26.2,23.1,28.82,ESE,112,0.0,0.0,88,0.00,,,0.00,WUHU216WMR100,2013-02-05 05:41:00,
2013-02-05 00:46:00,26.2,23.1,28.82,ESE,112,0.0,0.0,88,0.00,,,0.00,WUHU216WMR100,2013-02-05 05:46:00,
2013-02-05 00:51:00,26.2,23.1,28.82,ESE,112,0.0,0.0,88,0.00,,,0.00,WUHU216WMR100,2013-02-05 05:51:00,
2013-02-05 00:56:00,26.2,23.1,28.82,ESE,112,0.0,0.0,88,0.00,,,0.00,WUHU216WMR100,2013-02-05 05:56:00,
2013-02-05 01:01:00,26.2,23.1,28.82,ESE,112,0.0,0.0,88,0.00,,,0.00,WUHU216WMR100,2013-02-05 06:01:00,
2013-02-05 01:06:00,26.2,23.1,28.82,ESE,112,0.0,0.0,88,0.00,,,0.00,WUHU216WMR100,2013-02-05 06:06:00,
2013-02-05 01:11:00,26.2,23.1,28.82,ESE,112,0.0,0.0,88,0.00,,,0.00,WUHU216WMR100,2013-02-05 06:11:00,
2013-02-05 01:16:00,26.2,23.1,28.82,ESE,112,0.0,0.0,88,0.00,,,0.00,WUHU216WMR100,2013-02-05 06:16:00,
2013-02-05 01:21:00,26.2,23.1,28.82,ESE,112,0.0,0.0,88,0.00,,,0.00,WUHU216WMR100,2013-02-05 06:21:00,
2013-02-05 01:26:00,26.2,23.1,28.82,ESE,112,0.0,0.0,88,0.00,,,0.00,WUHU216WMR100,2013-02-05 06:26:00,
2013-02-05 01:31:00,26.4,23.3,28.82,ESE,112,0.0,0.0,88,0.00,,,0.00,WUHU216WMR100,2013-02-05 06:31:00,
2013-02-05 01:36:00,26.2,23.1,28.82,ESE,112,0.0,0.0,88,0.00,,,0.00,WUHU216WMR100,2013-02-05 06:36:00,
2013-02-05 01:41:00,26.2,23.1,28.82,ESE,112,0.0,0.0,88,0.00,,,0.00,WUHU216WMR100,2013-02-05 06:41:00,
2013-02-05 01:46:00,26.2,23.1,28.82,ESE,112,0.0,2.0,88,0.00,,,0.00,WUHU216WMR100,2013-02-05 06:46:00,
2013-02-05 01:51:00,26.2,23.1,28.85,ESE,112,0.0,2.0,88,0.00,,,0.00,WUHU216WMR100,2013-02-05 06:51:00,
2013-02-05 01:56:00,26.2,23.1,28.85,ESE,112,0.0,2.7,88,0.00,,,0.00,WUHU216WMR100,2013-02-05 06:56:00,
2013-02-05 02:01:00,26.2,23.1,28.85,ESE,112,1.6,2.7,88,0.00,,,0.00,WUHU216WMR100,2013-02-05 07:01:00,
2013-02-05 02:06:00,26.2,23.1,28.85,ESE,112,0.0,1.6,88,0.00,,,0.00,WUHU216WMR100,2013-02-05 07:06:00,
2013-02-05 02:11:00,26.2,23.1,28.85,ESE,112,0.0,1.6,88,0.00,,,0.00,WUHU216WMR100,2013-02-05 07:11:00,
2013-02-05 02:16:00,26.1,23.3,28.85,ESE,112,0.0,0.0,89,0.00,,,0.00,WUHU216WMR100,2013-02-05 07:16:00,
2013-02-05 02:21:00,26.1,23.3,28.85,ESE,112,0.0,0.0,89,0.00,,,0.00,WUHU216WMR100,2013-02-05 07:21:00,
2013-02-05 02:26:00,26.1,23.3,28.85,ESE,112,0.0,0.0,89,0.00,,,0.00,WUHU216WMR100,2013-02-05 07:26:00,
2013-02-05 02:31:00,26.1,23.3,28.85,ESE,112,0.0,0.0,89,0.00,,,0.00,WUHU216WMR100,2013-02-05 07:31:00,
2013-02-05 02:36:00,26.1,23.3,28.85,ESE,112,1.1,1.3,89,0.00,,,0.00,WUHU216WMR100,2013-02-05 07:36:00,
2013-02-05 02:41:00,26.1,23.3,28.85,ESE,112,0.0,1.3,89,0.00,,,0.00,WUHU216WMR100,2013-02-05 07:41:00,
2013-02-05 02:46:00,26.1,23.3,28.85,ESE,112,0.0,1.3,89,0.00,,,0.00,WUHU216WMR100,2013-02-05 07:46:00,
2013-02-05 02:51:00,26.1,23.3,28.85,ESE,112,0.0,0.9,89,0.00,,,0.00,WUHU216WMR100,2013-02-05 07:51:00,
2013-02-05 02:57:00,26.1,23.3,28.85,ESE,112,0.0,0.0,89,0.00,,,0.00,WUHU216WMR100,2013-02-05 07:57:00,
2013-02-05 03:02:00,26.1,23.3,28.85,ESE,112,0.0,2.0,89,0.00,,,0.00,WUHU216WMR100,2013-02-05 08:02:00,
2013-02-05 03:07:00,26.1,23.3,28.82,ESE,112,0.0,2.0,89,0.00,,,0.00,WUHU216WMR100,2013-02-05 08:07:00,
2013-02-05 03:12:00,26.1,23.3,28.82,ESE,112,0.0,0.0,89,0.00,,,0.00,WUHU216WMR100,2013-02-05 08:12:00,
2013-02-05 03:17:00,26.1,23.5,28.82,ESE,112,0.0,0.0,90,0.00,,,0.00,WUHU216WMR100,2013-02-05 08:17:00,
2013-02-05 03:22:00,26.1,23.5,28.85,ESE,112,0.0,0.0,90,0.00,,,0.00,WUHU216WMR100,2013-02-05 08:22:00,
2013-02-05 03:27:00,26.1,23.5,28.85,ESE,112,0.0,0.0,90,0.00,,,0.00,WUHU216WMR100,2013-02-05 08:27:00,
2013-02-05 03:32:00,26.1,23.5,28.85,ESE,112,0.0,1.3,90,0.00,,,0.00,WUHU216WMR100,2013-02-05 08:32:00,
2013-02-05 03:37:00,26.1,23.5,28.85,ESE,112,0.0,1.3,90,0.00,,,0.00,WUHU216WMR100,2013-02-05 08:37:00,
2013-02-05 03:42:00,26.1,23.8,28.85,ESE,112,0.0,0.0,91,0.00,,,0.00,WUHU216WMR100,2013-02-05 08:42:00,
2013-02-05 03:47:00,26.1,23.8,28.85,ESE,112,0.0,0.0,91,0.00,,,0.00,WUHU216WMR100,2013-02-05 08:47:00,
2013-02-05 03:52:00,25.9,23.6,28.82,ESE,112,0.0,0.9,91,0.00,,,0.00,WUHU216WMR100,2013-02-05 08:52:00,
2013-02-05 03:58:00,25.9,23.6,28.82,ESE,112,0.0,0.9,91,0.00,,,0.00,WUHU216WMR100,2013-02-05 08:58:00,
2013-02-05 04:03:00,25.9,23.6,28.82,ESE,112,0.0,0.0,91,0.00,,,0.00,WUHU216WMR100,2013-02-05 09:03:00,
2013-02-05 04:08:00,25.9,23.6,28.85,ESE,112,0.0,0.0,91,0.00,,,0.00,WUHU216WMR100,2013-02-05 09:08:00,
2013-02-05 04:13:00,25.9,23.6,28.85,ESE,112,0.0,0.0,91,0.00,,,0.00,WUHU216WMR100,2013-02-05 09:13:00,
2013-02-05 04:18:00,25.9,23.6,28.85,ESE,112,0.0,0.0,91,0.00,,,0.00,WUHU216WMR100,2013-02-05 09:18:00,
2013-02-05 04:23:00,25.9,23.6,28.85,ESE,112,0.0,0.9,91,0.00,,,0.00,WUHU216WMR100,2013-02-05 09:23:00,
2013-02-05 04:29:00,25.9,23.6,28.85,ESE,112,0.0,1.3,91,0.00,,,0.00,WUHU216WMR100,2013-02-05 09:29:00,
2013-02-05 04:34:00,25.7,23.4,28.85,ESE,112,0.0,1.3,91,0.00,,,0.00,WUHU216WMR100,2013-02-05 09:34:00,
2013-02-05 04:39:00,25.9,23.6,28.85,ESE,112,1.3,1.3,91,0.00,,,0.00,WUHU216WMR100,2013-02-05 09:39:00,
2013-02-05 04:44:00,25.7,23.4,28.85,ESE,112,1.3,1.6,91,0.00,,,0.00,WUHU216WMR100,2013-02-05 09:44:00,
2013-02-05 04:49:00,25.9,23.8,28.85,ESE,112,1.6,2.5,92,0.00,,,0.00,WUHU216WMR100,2013-02-05 09:49:00,
2013-02-05 04:54:00,25.9,24.1,28.85,ESE,112,1.1,2.5,93,0.00,,,0.00,WUHU216WMR100,2013-02-05 09:54:00,
2013-02-05 04:59:00,25.7,23.9,28.85,ESE,112,1.1,2.5,93,0.00,,,0.00,WUHU216WMR100,2013-02-05 09:59:00,
2013-02-05 05:04:00,25.7,23.9,28.85,ESE,112,1.1,1.3,93,0.00,,,0.00,WUHU216WMR100,2013-02-05 10:04:00,
2013-02-05 05:09:00,25.7,23.9,28.85,ESE,112,1.6,1.6,93,0.00,,,0.00,WUHU216WMR100,2013-02-05 10:09:00,
2013-02-05 05:14:00,25.7,24.2,28.85,ESE,112,2.5,2.5,94,0.00,,,0.00,WUHU216WMR100,2013-02-05 10:14:00,
2013-02-05 05:19:00,25.5,24.0,28.85,ESE,112,1.6,2.7,94,0.00,,,0.00,WUHU216WMR100,2013-02-05 10:19:00,
2013-02-05 05:24:00,25.5,24.0,28.85,ESE,112,2.5,2.9,94,0.00,,,0.00,WUHU216WMR100,2013-02-05 10:24:00,
2013-02-05 05:29:00,25.5,24.0,28.85,ESE,112,1.3,2.9,94,0.00,,,0.00,WUHU216WMR100,2013-02-05 10:29:00,
2013-02-05 05:34:00,25.3,23.8,28.85,ESE,112,0.0,2.7,94,0.00,,,0.00,WUHU216WMR100,2013-02-05 10:34:00,
2013-02-05 05:39:00,25.3,23.8,28.85,ESE,112,0.0,2.7,94,0.00,,,0.00,WUHU216WMR100,2013-02-05 10:39:00,
2013-02-05 05:44:00,25.3,23.8,28.85,ESE,112,2.0,2.2,94,0.00,,,0.00,WUHU216WMR100,2013-02-05 10:44:00,
2013-02-05 05:49:00,25.3,23.8,28.82,ESE,112,1.3,2.2,94,0.00,,,0.00,WUHU216WMR100,2013-02-05 10:49:00,
2013-02-05 05:54:00,25.3,23.8,28.82,ESE,112,0.0,2.7,94,0.00,,,0.00,WUHU216WMR100,2013-02-05 10:54:00,
2013-02-05 05:59:00,25.3,23.8,28.82,ESE,112,0.0,2.7,94,0.00,,,0.00,WUHU216WMR100,2013-02-05 10:59:00,
2013-02-05 06:04:00,25.3,23.8,28.82,ESE,112,0.0,1.6,94,0.00,,,0.00,WUHU216WMR100,2013-02-05 11:04:00,
2013-02-05 06:09:00,25.3,23.8,28.82,ESE,112,1.1,1.6,94,0.00,,,0.00,WUHU216WMR100,2013-02-05 11:09:00,
2013-02-05 06:14:00,25.3,23.8,28.82,ESE,112,0.0,1.6,94,0.00,,,0.00,WUHU216WMR100,2013-02-05 11:14:00,
2013-02-05 06:19:00,25.3,23.8,28.85,ESE,112,0.0,2.5,94,0.00,,,0.00,WUHU216WMR100,2013-02-05 11:19:00,
2013-02-05 06:24:00,25.3,23.5,28.85,ESE,112,0.0,2.5,93,0.00,,,0.00,WUHU216WMR100,2013-02-05 11:24:00,
2013-02-05 06:29:00,25.3,23.5,28.85,ESE,112,0.0,2.0,93,0.00,,,0.00,WUHU216WMR100,2013-02-05 11:29:00,
2013-02-05 06:34:00,25.3,23.5,28.85,ESE,112,0.0,0.0,93,0.00,,,0.00,WUHU216WMR100,2013-02-05 11:34:00,
2013-02-05 06:39:00,25.3,23.5,28.85,ESE,112,0.0,1.1,93,0.00,,,0.00,WUHU216WMR100,2013-02-05 11:39:00,
2013-02-05 06:44:00,25.3,23.5,28.85,ESE,112,0.0,2.2,93,0.00,,,0.00,WUHU216WMR100,2013-02-05 11:44:00,
2013-02-05 06:49:00,25.3,23.5,28.85,ESE,112,0.0,2.2,93,0.00,,,0.00,WUHU216WMR100,2013-02-05 11:49:00,
2013-02-05 06:54:00,25.3,23.5,28.85,ESE,112,0.0,0.0,93,0.00,,,0.00,WUHU216WMR100,2013-02-05 11:54:00,
2013-02-05 06:59:00,25.3,23.3,28.85,ESE,112,0.0,0.0,92,0.00,,,0.00,WUHU216WMR100,2013-02-05 11:59:00,
2013-02-05 07:04:00,25.3,23.3,28.85,ESE,112,0.0,0.0,92,0.00,,,0.00,WUHU216WMR100,2013-02-05 12:04:00,
2013-02-05 07:09:00,25.3,23.3,28.85,ESE,112,0.0,0.0,92,0.00,,,0.00,WUHU216WMR100,2013-02-05 12:09:00,
2013-02-05 07:14:00,25.3,23.3,28.85,ESE,112,0.0,0.0,92,0.00,,,0.00,WUHU216WMR100,2013-02-05 12:14:00,
2013-02-05 07:19:00,25.3,23.3,28.85,ESE,112,0.0,0.0,92,0.00,,,0.00,WUHU216WMR100,2013-02-05 12:19:00,
2013-02-05 07:25:00,25.3,23.3,28.85,ESE,112,0.0,0.0,92,0.00,,,0.00,WUHU216WMR100,2013-02-05 12:25:00,
2013-02-05 07:30:00,25.3,23.3,28.85,ESE,112,0.0,0.0,92,0.00,,,0.00,WUHU216WMR100,2013-02-05 12:30:00,
2013-02-05 07:35:00,25.3,23.3,28.88,ESE,112,0.0,1.6,92,0.00,,,0.00,WUHU216WMR100,2013-02-05 12:35:00,
2013-02-05 07:40:00,25.3,23.3,28.88,ESE,112,0.0,1.6,92,0.00,,,0.00,WUHU216WMR100,2013-02-05 12:40:00,
2013-02-05 07:46:00,25.3,23.3,28.88,ESE,112,0.0,0.0,92,0.00,,,0.00,WUHU216WMR100,2013-02-05 12:46:00,
2013-02-05 07:51:00,25.5,23.5,28.85,ESE,112,0.0,0.0,92,0.00,,,0.00,WUHU216WMR100,2013-02-05 12:51:00,
2013-02-05 07:56:00,25.5,23.5,28.85,ESE,112,0.0,0.0,92,0.00,,,0.00,WUHU216WMR100,2013-02-05 12:56:00,
2013-02-05 08:01:00,25.7,23.6,28.85,ESE,112,0.0,0.0,92,0.00,,,0.00,WUHU216WMR100,2013-02-05 13:01:00,
2013-02-05 08:07:00,25.7,23.6,28.88,ESE,112,0.0,1.3,92,0.00,,,0.00,WUHU216WMR100,2013-02-05 13:07:00,
2013-02-05 08:12:00,25.9,23.8,28.88,ESE,112,0.0,2.0,92,0.00,,,0.00,WUHU216WMR100,2013-02-05 13:12:00,
2013-02-05 08:18:00,25.9,23.8,28.88,ESE,112,0.0,2.0,92,0.00,,,0.00,WUHU216WMR100,2013-02-05 13:18:00,
2013-02-05 08:23:00,26.1,24.0,28.88,ESE,112,0.0,1.1,92,0.00,,,0.00,WUHU216WMR100,2013-02-05 13:23:00,
2013-02-05 08:28:00,26.2,24.1,28.88,ESE,112,0.0,0.0,92,0.00,,,0.00,WUHU216WMR100,2013-02-05 13:28:00,
2013-02-05 08:33:00,26.4,24.3,28.88,ESE,112,0.0,0.0,92,0.00,,,0.00,WUHU216WMR100,2013-02-05 13:33:00,
2013-02-05 08:38:00,26.6,24.5,28.88,ESE,112,0.0,0.0,92,0.00,,,0.00,WUHU216WMR100,2013-02-05 13:38:00,
2013-02-05 08:43:00,26.4,24.1,28.88,ESE,112,1.3,2.2,91,0.00,,,0.00,WUHU216WMR100,2013-02-05 13:43:00,
2013-02-05 08:49:00,26.6,24.3,28.88,ESE,112,0.0,2.2,91,0.00,,,0.00,WUHU216WMR100,2013-02-05 13:49:00,
2013-02-05 08:54:00,26.8,24.5,28.88,ESE,112,0.0,0.0,91,0.00,,,0.00,WUHU216WMR100,2013-02-05 13:54:00,
2013-02-05 08:59:00,26.8,24.2,28.88,ESE,112,0.0,1.3,90,0.00,,,0.00,WUHU216WMR100,2013-02-05 13:59:00,
2013-02-05 09:04:00,26.8,24.2,28.88,ESE,112,0.9,2.0,90,0.00,,,0.00,WUHU216WMR100,2013-02-05 14:04:00,
2013-02-05 09:09:00,27.3,25.0,28.88,ESE,112,0.0,2.0,91,0.00,,,0.00,WUHU216WMR100,2013-02-05 14:09:00,
2013-02-05 09:14:00,27.5,24.9,28.88,ESE,112,0.0,0.9,90,0.00,,,0.00,WUHU216WMR100,2013-02-05 14:14:00,
2013-02-05 09:19:00,28.2,25.9,28.88,ESE,112,0.0,0.0,91,0.00,,,0.00,WUHU216WMR100,2013-02-05 14:19:00,
2013-02-05 09:24:00,28.4,25.8,28.88,ESE,112,1.3,1.6,90,0.00,,,0.00,WUHU216WMR100,2013-02-05 14:24:00,
2013-02-05 09:29:00,28.4,25.5,28.88,ESE,112,1.3,2.7,89,0.00,,,0.00,WUHU216WMR100,2013-02-05 14:29:00,
2013-02-05 09:34:00,28.8,25.9,28.88,ESE,112,1.1,2.7,89,0.00,,,0.00,WUHU216WMR100,2013-02-05 14:34:00,
2013-02-05 09:39:00,28.6,25.5,28.88,ESE,112,2.5,2.7,88,0.00,,,0.00,WUHU216WMR100,2013-02-05 14:39:00,
2013-02-05 09:44:00,28.4,25.0,28.88,ESE,112,2.0,2.7,87,0.00,,,0.00,WUHU216WMR100,2013-02-05 14:44:00,
2013-02-05 09:49:00,28.4,25.0,28.88,ESE,112,1.6,2.5,87,0.00,,,0.00,WUHU216WMR100,2013-02-05 14:49:00,
2013-02-05 09:54:00,28.2,24.8,28.88,ESE,112,2.5,2.9,87,0.00,,,0.00,WUHU216WMR100,2013-02-05 14:54:00,
2013-02-05 09:59:00,28.4,25.0,28.88,ESE,112,0.0,2.9,87,0.00,,,0.00,WUHU216WMR100,2013-02-05 14:59:00,
2013-02-05 10:04:00,28.9,25.5,28.88,ESE,112,1.1,2.5,87,0.00,,,0.00,WUHU216WMR100,2013-02-05 15:04:00,
2013-02-05 10:09:00,29.1,25.7,28.88,ESE,112,1.3,2.7,87,0.00,,,0.00,WUHU216WMR100,2013-02-05 15:09:00,
2013-02-05 10:14:00,28.9,25.2,28.88,ESE,112,0.9,2.7,86,0.00,,,0.00,WUHU216WMR100,2013-02-05 15:14:00,
2013-02-05 10:19:00,29.5,25.8,28.88,ESE,112,1.1,2.5,86,0.00,,,0.00,WUHU216WMR100,2013-02-05 15:19:00,
2013-02-05 10:24:00,30.7,27.0,28.88,ESE,112,1.1,2.0,86,0.00,,,0.00,WUHU216WMR100,2013-02-05 15:24:00,
2013-02-05 10:29:00,30.4,26.1,28.88,ESE,112,1.6,3.1,84,0.00,,,0.00,WUHU216WMR100,2013-02-05 15:29:00,
2013-02-05 10:34:00,31.1,26.8,28.88,ESE,112,1.3,3.1,84,0.00,,,0.00,WUHU216WMR100,2013-02-05 15:34:00,
2013-02-05 10:39:00,32.5,28.2,28.88,ESE,112,0.0,3.1,84,0.00,,,0.00,WUHU216WMR100,2013-02-05 15:39:00,
2013-02-05 10:44:00,32.2,26.7,28.88,ESE,112,2.0,3.6,80,0.00,,,0.00,WUHU216WMR100,2013-02-05 15:44:00,
2013-02-05 10:49:00,33.1,27.3,28.88,ESE,112,2.0,3.6,79,0.00,,,0.00,WUHU216WMR100,2013-02-05 15:49:00,
2013-02-05 10:54:00,33.3,27.5,28.88,NW,315,0.0,3.6,79,0.00,,,0.00,WUHU216WMR100,2013-02-05 15:54:00,
2013-02-05 10:59:00,34.0,27.9,28.88,NNW,337,0.0,3.6,78,0.00,,,0.00,WUHU216WMR100,2013-02-05 15:59:00,
2013-02-05 11:04:00,34.0,27.6,28.88,NNW,337,0.0,2.0,77,0.00,,,0.00,WUHU216WMR100,2013-02-05 16:04:00,
2013-02-05 11:09:00,34.9,28.1,28.88,North,0,0.0,0.0,76,0.00,,,0.00,WUHU216WMR100,2013-02-05 16:09:00,
2013-02-05 11:14:00,35.1,27.7,28.88,North,0,0.0,0.0,74,0.00,,,0.00,WUHU216WMR100,2013-02-05 16:14:00,
2013-02-05 11:19:00,35.2,27.1,28.88,North,0,0.0,0.0,72,0.00,,,0.00,WUHU216WMR100,2013-02-05 16:19:00,
2013-02-05 11:24:00,36.3,27.9,28.85,NNW,337,1.6,1.6,71,0.00,,,0.00,WUHU216WMR100,2013-02-05 16:24:00,
2013-02-05 11:29:00,36.1,27.0,28.85,WNW,292,1.1,2.9,69,0.00,,,0.00,WUHU216WMR100,2013-02-05 16:29:00,
2013-02-05 11:34:00,35.6,25.8,28.85,WNW,292,1.1,2.9,67,0.00,,,0.00,WUHU216WMR100,2013-02-05 16:34:00,
2013-02-05 11:39:00,37.0,27.8,28.88,West,270,1.1,2.9,69,0.00,,,0.00,WUHU216WMR100,2013-02-05 16:39:00,
2013-02-05 11:44:00,35.4,24.5,28.88,West,270,1.1,2.9,64,0.00,,,0.00,WUHU216WMR100,2013-02-05 16:44:00,
2013-02-05 11:49:00,34.5,23.3,28.88,West,270,1.1,1.1,63,0.00,,,0.00,WUHU216WMR100,2013-02-05 16:49:00,
2013-02-05 11:54:00,33.6,22.8,28.88,West,270,1.1,1.1,64,0.00,,,0.00,WUHU216WMR100,2013-02-05 16:54:00,
2013-02-05 11:59:00,33.3,23.2,28.88,WSW,247,1.6,2.9,66,0.00,,,0.00,WUHU216WMR100,2013-02-05 16:59:00,
2013-02-05 12:04:00,33.6,24.2,28.88,WSW,247,1.6,2.9,68,0.00,,,0.00,WUHU216WMR100,2013-02-05 17:04:00,
2013-02-05 12:09:00,33.8,24.4,28.88,WNW,292,0.9,2.9,68,0.00,,,0.00,WUHU216WMR100,2013-02-05 17:09:00,
2013-02-05 12:15:00,33.8,24.1,28.88,WNW,292,0.9,2.9,67,0.00,,,0.00,WUHU216WMR100,2013-02-05 17:15:00,
2013-02-05 12:20:00,33.1,22.7,28.85,NNW,337,3.4,3.4,65,0.00,,,0.00,WUHU216WMR100,2013-02-05 17:20:00,
2013-02-05 12:25:00,33.1,23.0,28.85,NW,315,2.5,3.4,66,0.00,,,0.00,WUHU216WMR100,2013-02-05 17:25:00,
2013-02-05 12:30:00,33.1,22.7,28.85,NW,315,2.5,3.4,65,0.00,,,0.00,WUHU216WMR100,2013-02-05 17:30:00,
2013-02-05 12:35:00,32.7,22.7,28.85,NW,315,2.9,3.6,66,0.00,,,0.00,WUHU216WMR100,2013-02-05 17:35:00,
2013-02-05 12:40:00,32.7,23.0,28.85,WNW,292,2.9,3.6,67,0.00,,,0.00,WUHU216WMR100,2013-02-05 17:40:00,
2013-02-05 12:45:00,32.5,22.5,28.85,WNW,292,2.9,3.1,66,0.00,,,0.00,WUHU216WMR100,2013-02-05 17:45:00,
2013-02-05 12:50:00,32.7,22.7,28.85,WNW,292,2.9,2.9,66,0.00,,,0.00,WUHU216WMR100,2013-02-05 17:50:00,
2013-02-05 12:55:00,32.7,22.3,28.85,NNW,337,3.6,4.0,65,0.00,,,0.00,WUHU216WMR100,2013-02-05 17:55:00,
2013-02-05 13:00:00,32.7,22.3,28.85,North,0,3.1,4.0,65,0.00,,,0.00,WUHU216WMR100,2013-02-05 18:00:00,
2013-02-05 13:05:00,32.2,21.4,28.85,North,0,3.1,4.0,64,0.00,,,0.00,WUHU216WMR100,2013-02-05 18:05:00,
2013-02-05 13:10:00,31.8,20.7,28.85,NNW,337,4.0,4.0,63,0.00,,,0.00,WUHU216WMR100,2013-02-05 18:10:00,
2013-02-05 13:15:00,32.0,21.3,28.85,NNW,337,3.4,4.0,64,0.00,,,0.00,WUHU216WMR100,2013-02-05 18:15:00,
2013-02-05 13:20:00,32.7,21.9,28.82,North,0,2.9,4.3,64,0.00,,,0.00,WUHU216WMR100,2013-02-05 18:20:00,
2013-02-05 13:25:00,32.9,21.4,28.82,NNW,337,3.1,7.8,62,0.00,,,0.00,WUHU216WMR100,2013-02-05 18:25:00,
2013-02-05 13:30:00,32.5,21.0,28.82,NNW,337,4.0,7.8,62,0.00,,,0.00,WUHU216WMR100,2013-02-05 18:30:00,
2013-02-05 13:35:00,32.5,21.0,28.82,NNW,337,2.5,5.6,62,0.00,,,0.00,WUHU216WMR100,2013-02-05 18:35:00,
2013-02-05 13:40:00,32.4,20.9,28.82,NW,315,2.2,5.6,62,0.00,,,0.00,WUHU216WMR100,2013-02-05 18:40:00,
2013-02-05 13:45:00,32.4,20.9,28.82,NNW,337,2.9,4.3,62,0.00,,,0.00,WUHU216WMR100,2013-02-05 18:45:00,
2013-02-05 13:50:00,32.2,20.7,28.85,WNW,292,2.9,4.3,62,0.00,,,0.00,WUHU216WMR100,2013-02-05 18:50:00,
2013-02-05 13:55:00,32.0,20.1,28.85,NW,315,3.6,4.3,61,0.00,,,0.00,WUHU216WMR100,2013-02-05 18:55:00,
2013-02-05 14:00:00,31.8,20.3,28.85,NW,315,2.9,4.5,62,0.00,,,0.00,WUHU216WMR100,2013-02-05 19:00:00,
2013-02-05 14:05:00,31.8,19.9,28.82,NW,315,2.5,5.6,61,0.00,,,0.00,WUHU216WMR100,2013-02-05 19:05:00,
2013-02-05 14:10:00,31.5,19.6,28.82,NNW,337,3.6,5.6,61,0.00,,,0.00,WUHU216WMR100,2013-02-05 19:10:00,
2013-02-05 14:15:00,32.7,20.8,28.82,WNW,292,2.7,5.6,61,0.00,,,0.00,WUHU216WMR100,2013-02-05 19:15:00,
2013-02-05 14:20:00,33.6,21.2,28.82,NW,315,3.1,5.8,60,0.00,,,0.00,WUHU216WMR100,2013-02-05 19:20:00,
2013-02-05 14:25:00,35.2,21.5,28.82,WNW,292,3.8,6.0,57,0.00,,,0.00,WUHU216WMR100,2013-02-05 19:25:00,
2013-02-05 14:30:00,36.0,21.8,28.82,WSW,247,1.3,6.0,56,0.00,,,0.00,WUHU216WMR100,2013-02-05 19:30:00,
2013-02-05 14:35:00,35.8,20.8,28.85,WSW,247,4.0,5.4,54,0.00,,,0.00,WUHU216WMR100,2013-02-05 19:35:00,
2013-02-05 14:40:00,36.7,21.6,28.85,NNW,337,2.7,5.4,54,0.00,,,0.00,WUHU216WMR100,2013-02-05 19:40:00,
2013-02-05 14:45:00,36.1,20.1,28.85,SSW,202,4.7,8.7,52,0.00,,,0.00,WUHU216WMR100,2013-02-05 19:45:00,
2013-02-05 14:50:00,37.4,21.8,28.85,North,0,2.0,8.7,53,0.00,,,0.00,WUHU216WMR100,2013-02-05 19:50:00,
2013-02-05 14:55:00,35.2,19.3,28.85,WNW,292,2.5,8.7,52,0.00,,,0.00,WUHU216WMR100,2013-02-05 19:55:00,
2013-02-05 15:00:00,34.9,19.0,28.85,WSW,247,3.8,8.7,52,0.00,,,0.00,WUHU216WMR100,2013-02-05 20:00:00,
2013-02-05 15:05:00,34.7,18.8,28.85,NW,315,3.8,8.5,52,0.00,,,0.00,WUHU216WMR100,2013-02-05 20:05:00,
2013-02-05 15:10:00,35.2,19.3,28.85,West,270,3.1,5.6,52,0.00,,,0.00,WUHU216WMR100,2013-02-05 20:10:00,
2013-02-05 15:15:00,35.6,19.7,28.85,NW,315,3.1,5.4,52,0.00,,,0.00,WUHU216WMR100,2013-02-05 20:15:00,
2013-02-05 15:20:00,35.8,20.3,28.85,NNW,337,2.0,4.9,53,0.00,,,0.00,WUHU216WMR100,2013-02-05 20:20:00,
2013-02-05 15:25:00,35.6,19.7,28.85,NW,315,2.9,4.9,52,0.00,,,0.00,WUHU216WMR100,2013-02-05 20:25:00,
2013-02-05 15:30:00,35.2,19.8,28.85,WSW,247,2.0,3.6,53,0.00,,,0.00,WUHU216WMR100,2013-02-05 20:30:00,
2013-02-05 15:35:00,34.5,18.6,28.85,West,270,2.7,3.4,52,0.00,,,0.00,WUHU216WMR100,2013-02-05 20:35:00,
2013-02-05 15:40:00,33.8,18.0,28.85,WSW,247,2.5,5.8,52,0.00,,,0.00,WUHU216WMR100,2013-02-05 20:40:00,
2013-02-05 15:45:00,34.0,18.6,28.85,WSW,247,2.2,5.8,53,0.00,,,0.00,WUHU216WMR100,2013-02-05 20:45:00,
2013-02-05 15:50:00,34.9,19.9,28.85,NNW,337,2.0,3.8,54,0.00,,,0.00,WUHU216WMR100,2013-02-05 20:50:00,
2013-02-05 15:55:00,34.9,19.5,28.85,NNW,337,2.5,2.9,53,0.00,,,0.00,WUHU216WMR100,2013-02-05 20:55:00,
2013-02-05 16:00:00,34.7,19.3,28.85,WNW,292,2.7,5.6,53,0.00,,,0.00,WUHU216WMR100,2013-02-05 21:00:00,
2013-02-05 16:05:00,34.9,19.5,28.85,WNW,292,2.7,5.6,53,0.00,,,0.00,WUHU216WMR100,2013-02-05 21:05:00,
2013-02-05 16:10:00,34.9,19.9,28.85,WNW,292,2.7,5.6,54,0.00,,,0.00,WUHU216WMR100,2013-02-05 21:10:00,
2013-02-05 16:15:00,34.5,19.6,28.85,WNW,292,2.7,5.6,54,0.00,,,0.00,WUHU216WMR100,2013-02-05 21:15:00,
2013-02-05 16:20:00,34.3,19.4,28.85,WNW,292,2.7,5.6,54,0.00,,,0.00,WUHU216WMR100,2013-02-05 21:20:00,
2013-02-05 16:25:00,33.4,18.1,28.85,WNW,292,2.7,5.6,53,0.00,,,0.00,WUHU216WMR100,2013-02-05 21:25:00,
2013-02-05 16:30:00,33.3,18.4,28.85,WNW,292,2.7,5.6,54,0.00,,,0.00,WUHU216WMR100,2013-02-05 21:30:00,
2013-02-05 16:35:00,32.7,17.9,28.85,WNW,292,2.7,5.6,54,0.00,,,0.00,WUHU216WMR100,2013-02-05 21:35:00,
2013-02-05 16:40:00,32.7,17.9,28.85,West,270,2.0,5.6,54,0.00,,,0.00,WUHU216WMR100,2013-02-05 21:40:00,
2013-02-05 16:45:00,32.4,17.6,28.85,WSW,247,3.6,5.6,54,0.00,,,0.00,WUHU216WMR100,2013-02-05 21:45:00,
2013-02-05 16:50:00,32.2,17.8,28.85,WSW,247,3.6,3.6,55,0.00,,,0.00,WUHU216WMR100,2013-02-05 21:50:00,
2013-02-05 16:55:00,31.5,16.7,28.85,West,270,2.9,3.6,54,0.00,,,0.00,WUHU216WMR100,2013-02-05 21:55:00,
2013-02-05 17:00:00,31.1,15.9,28.85,WSW,247,3.1,4.9,53,0.00,,,0.00,WUHU216WMR100,2013-02-05 22:00:00,
2013-02-05 17:05:00,30.7,15.6,28.85,WSW,247,3.1,4.9,53,0.00,,,0.00,WUHU216WMR100,2013-02-05 22:05:00,
2013-02-05 17:10:00,30.6,15.9,28.85,WSW,247,0.9,4.9,54,0.00,,,0.00,WUHU216WMR100,2013-02-05 22:10:00,
2013-02-05 17:15:00,30.2,16.0,28.85,West,270,0.9,2.2,55,0.00,,,0.00,WUHU216WMR100,2013-02-05 22:15:00,
2013-02-05 17:20:00,30.0,15.8,28.85,NNW,337,1.3,1.6,55,0.00,,,0.00,WUHU216WMR100,2013-02-05 22:20:00,
2013-02-05 17:25:00,29.8,15.6,28.85,West,270,0.0,1.6,55,0.00,,,0.00,WUHU216WMR100,2013-02-05 22:25:00,
2013-02-05 17:30:00,29.7,15.5,28.85,WSW,247,0.0,1.6,55,0.00,,,0.00,WUHU216WMR100,2013-02-05 22:30:00,
2013-02-05 17:35:00,29.5,15.7,28.85,SW,225,1.3,2.0,56,0.00,,,0.00,WUHU216WMR100,2013-02-05 22:35:00,
2013-02-05 17:40:00,29.3,15.5,28.85,WNW,292,0.0,2.0,56,0.00,,,0.00,WUHU216WMR100,2013-02-05 22:40:00,
2013-02-05 17:45:00,29.3,15.5,28.85,WSW,247,0.0,2.0,56,0.00,,,0.00,WUHU216WMR100,2013-02-05 22:45:00,
2013-02-05 17:50:00,29.1,15.4,28.85,WSW,247,0.0,2.0,56,0.00,,,0.00,WUHU216WMR100,2013-02-05 22:50:00,
2013-02-05 17:55:00,29.1,15.8,28.85,SW,225,2.0,2.0,57,0.00,,,0.00,WUHU216WMR100,2013-02-05 22:55:00,
2013-02-05 18:00:00,29.1,15.4,28.85,WNW,292,1.6,2.0,56,0.00,,,0.00,WUHU216WMR100,2013-02-05 23:00:00,
2013-02-05 18:05:00,28.9,15.2,28.85,WSW,247,0.0,2.7,56,0.00,,,0.00,WUHU216WMR100,2013-02-05 23:05:00,
2013-02-05 18:10:00,28.9,15.2,28.85,WSW,247,0.0,2.7,56,0.00,,,0.00,WUHU216WMR100,2013-02-05 23:10:00,
2013-02-05 18:15:00,28.9,15.2,28.85,WSW,247,1.3,2.7,56,0.00,,,0.00,WUHU216WMR100,2013-02-05 23:15:00,
2013-02-05 18:20:00,28.9,15.6,28.85,WSW,247,1.3,2.7,57,0.00,,,0.00,WUHU216WMR100,2013-02-05 23:20:00,
2013-02-05 18:25:00,28.9,15.6,28.85,WSW,247,0.0,2.5,57,0.00,,,0.00,WUHU216WMR100,2013-02-05 23:25:00,
2013-02-05 18:31:00,28.9,15.6,28.85,NW,315,0.0,1.3,57,0.00,,,0.00,WUHU216WMR100,2013-02-05 23:31:00,
2013-02-05 18:36:00,28.8,15.9,28.88,NW,315,0.0,1.3,58,0.00,,,0.00,WUHU216WMR100,2013-02-05 23:36:00,
2013-02-05 18:41:00,28.9,16.0,28.88,SSW,202,0.0,0.0,58,0.00,,,0.00,WUHU216WMR100,2013-02-05 23:41:00,
2013-02-05 18:46:00,28.9,16.0,28.88,WSW,247,1.1,1.1,58,0.00,,,0.00,WUHU216WMR100,2013-02-05 23:46:00,
2013-02-05 18:51:00,28.8,16.3,28.88,SSW,202,0.0,1.1,59,0.00,,,0.00,WUHU216WMR100,2013-02-05 23:51:00,
2013-02-05 18:56:00,28.6,16.5,28.88,WNW,292,1.1,2.0,60,0.00,,,0.00,WUHU216WMR100,2013-02-05 23:56:00,
2013-02-05 19:01:00,28.4,17.5,28.88,WNW,292,1.1,2.0,63,0.00,,,0.00,WUHU216WMR100,2013-02-06 00:01:00,
2013-02-05 19:06:00,28.2,19.1,28.88,West,270,0.0,4.7,68,0.00,,,0.00,WUHU216WMR100,2013-02-06 00:06:00,
2013-02-05 19:11:00,28.0,18.9,28.88,WSW,247,2.2,4.7,68,0.00,,,0.00,WUHU216WMR100,2013-02-06 00:11:00,
2013-02-05 19:16:00,27.9,19.4,28.88,SW,225,0.0,3.1,70,0.00,,,0.00,WUHU216WMR100,2013-02-06 00:16:00,
2013-02-05 19:22:00,27.9,19.8,28.88,SSW,202,2.0,3.1,71,0.00,,,0.00,WUHU216WMR100,2013-02-06 00:22:00,
2013-02-05 19:27:00,27.9,20.4,28.88,SSW,202,1.1,3.8,73,0.00,,,0.00,WUHU216WMR100,2013-02-06 00:27:00,
2013-02-05 19:33:00,27.9,20.4,28.88,WSW,247,1.1,2.9,73,0.00,,,0.00,WUHU216WMR100,2013-02-06 00:33:00,
2013-02-05 19:38:00,27.7,20.8,28.88,SSE,157,1.6,2.9,75,0.00,,,0.00,WUHU216WMR100,2013-02-06 00:38:00,
2013-02-05 19:43:00,27.9,21.3,28.88,SSE,157,0.0,2.9,76,0.00,,,0.00,WUHU216WMR100,2013-02-06 00:43:00,
2013-02-05 19:48:00,27.9,22.2,28.88,SSW,202,1.3,3.4,79,0.00,,,0.00,WUHU216WMR100,2013-02-06 00:48:00,
2013-02-05 19:53:00,27.9,21.9,28.88,SSW,202,0.9,3.4,78,0.00,,,0.00,WUHU216WMR100,2013-02-06 00:53:00,
2013-02-05 19:57:00,27.9,22.2,28.88,SSW,202,0.9,2.7,79,0.00,,,0.00,WUHU216WMR100,2013-02-06 00:57:00,
2013-02-05 20:02:00,27.7,22.3,28.88,SSW,202,0.9,2.5,80,0.00,,,0.00,WUHU216WMR100,2013-02-06 01:02:00,
2013-02-05 20:07:00,27.7,22.6,28.88,SSE,157,0.0,2.5,81,0.00,,,0.00,WUHU216WMR100,2013-02-06 01:07:00,
2013-02-05 20:12:00,27.7,22.9,28.88,SSW,202,0.0,3.8,82,0.00,,,0.00,WUHU216WMR100,2013-02-06 01:12:00,
2013-02-05 20:17:00,27.7,23.2,28.88,SSE,157,0.0,3.8,83,0.00,,,0.00,WUHU216WMR100,2013-02-06 01:17:00,
2013-02-05 20:22:00,27.7,23.2,28.91,SSE,157,1.3,3.1,83,0.00,,,0.00,WUHU216WMR100,2013-02-06 01:22:00,
2013-02-05 20:27:00,27.7,23.2,28.91,South,180,1.3,2.5,83,0.00,,,0.00,WUHU216WMR100,2013-02-06 01:27:00,
2013-02-05 20:32:00,27.7,23.2,28.91,SSE,157,0.0,2.5,83,0.00,,,0.00,WUHU216WMR100,2013-02-06 01:32:00,
2013-02-05 20:37:00,27.7,23.5,28.88,SSE,157,2.0,2.5,84,0.00,,,0.00,WUHU216WMR100,2013-02-06 01:37:00,
2013-02-05 20:42:00,27.7,23.5,28.88,SSE,157,1.1,2.5,84,0.00,,,0.00,WUHU216WMR100,2013-02-06 01:42:00,
2013-02-05 20:48:00,27.7,23.5,28.88,South,180,1.1,2.0,84,0.00,,,0.00,WUHU216WMR100,2013-02-06 01:48:00,
2013-02-05 20:53:00,27.7,23.5,28.91,WSW,247,0.0,2.2,84,0.00,,,0.00,WUHU216WMR100,2013-02-06 01:53:00,
2013-02-05 20:57:00,27.7,23.5,28.91,SSW,202,1.1,2.7,84,0.00,,,0.00,WUHU216WMR100,2013-02-06 01:57:00,
2013-02-05 21:02:00,27.7,23.8,28.91,West,270,0.9,2.7,85,0.00,,,0.00,WUHU216WMR100,2013-02-06 02:02:00,
2013-02-05 21:08:00,27.7,23.8,28.91,NNW,337,0.0,2.5,85,0.00,,,0.00,WUHU216WMR100,2013-02-06 02:08:00,
2013-02-05 21:13:00,27.7,23.8,28.91,SW,225,0.0,2.5,85,0.00,,,0.00,WUHU216WMR100,2013-02-06 02:13:00,
2013-02-05 21:18:00,27.7,23.8,28.91,WSW,247,0.0,2.7,85,0.00,,,0.00,WUHU216WMR100,2013-02-06 02:18:00,
2013-02-05 21:23:00,27.7,23.8,28.91,WSW,247,0.0,2.7,85,0.00,,,0.00,WUHU216WMR100,2013-02-06 02:23:00,
2013-02-05 21:28:00,27.7,23.8,28.91,West,270,0.0,2.2,85,0.00,,,0.00,WUHU216WMR100,2013-02-06 02:28:00,
2013-02-05 21:33:00,27.7,23.8,28.91,West,270,0.0,2.0,85,0.00,,,0.00,WUHU216WMR100,2013-02-06 02:33:00,
2013-02-05 21:38:00,27.7,23.8,28.91,West,270,0.0,1.1,85,0.00,,,0.00,WUHU216WMR100,2013-02-06 02:38:00,
2013-02-05 21:43:00,27.7,23.8,28.91,West,270,0.0,0.0,85,0.00,,,0.00,WUHU216WMR100,2013-02-06 02:43:00,
2013-02-05 21:48:00,27.7,24.0,28.91,West,270,0.0,0.0,86,0.00,,,0.00,WUHU216WMR100,2013-02-06 02:48:00,
2013-02-05 21:53:00,27.5,23.8,28.94,West,270,0.0,0.0,86,0.00,,,0.00,WUHU216WMR100,2013-02-06 02:53:00,
2013-02-05 21:58:00,27.5,23.8,28.94,West,270,0.0,0.0,86,0.00,,,0.00,WUHU216WMR100,2013-02-06 02:58:00,
2013-02-05 22:03:00,27.5,23.8,28.94,West,270,0.0,0.0,86,0.00,,,0.00,WUHU216WMR100,2013-02-06 03:03:00,
2013-02-05 22:08:00,27.3,23.6,28.91,West,270,0.0,0.0,86,0.00,,,0.00,WUHU216WMR100,2013-02-06 03:08:00,
2013-02-05 22:13:00,27.3,23.6,28.91,West,270,0.0,0.0,86,0.00,,,0.00,WUHU216WMR100,2013-02-06 03:13:00,
2013-02-05 22:18:00,27.3,23.9,28.91,West,270,0.0,0.0,87,0.00,,,0.00,WUHU216WMR100,2013-02-06 03:18:00,
2013-02-05 22:23:00,27.3,23.9,28.91,West,270,0.0,0.0,87,0.00,,,0.00,WUHU216WMR100,2013-02-06 03:23:00,
2013-02-05 22:28:00,27.1,23.7,28.91,West,270,0.0,0.0,87,0.00,,,0.00,WUHU216WMR100,2013-02-06 03:28:00,
2013-02-05 22:33:00,27.3,23.9,28.91,West,270,0.0,0.0,87,0.00,,,0.00,WUHU216WMR100,2013-02-06 03:33:00,
2013-02-05 22:38:00,27.3,23.9,28.94,West,270,0.0,0.0,87,0.00,,,0.00,WUHU216WMR100,2013-02-06 03:38:00,
2013-02-05 22:43:00,27.1,24.0,28.94,West,270,0.0,0.0,88,0.00,,,0.00,WUHU216WMR100,2013-02-06 03:43:00,
2013-02-05 22:48:00,27.1,24.0,28.94,West,270,0.0,0.0,88,0.00,,,0.00,WUHU216WMR100,2013-02-06 03:48:00,
2013-02-05 22:53:00,27.1,24.0,28.94,West,270,0.0,0.0,88,0.00,,,0.00,WUHU216WMR100,2013-02-06 03:53:00,
2013-02-05 22:58:00,27.1,24.0,28.94,West,270,0.0,0.0,88,0.00,,,0.00,WUHU216WMR100,2013-02-06 03:58:00,
2013-02-05 23:03:00,27.1,24.0,28.94,West,270,0.0,0.0,88,0.00,,,0.00,WUHU216WMR100,2013-02-06 04:03:00,
2013-02-05 23:08:00,27.1,24.0,28.94,West,270,0.0,0.0,88,0.00,,,0.00,WUHU216WMR100,2013-02-06 04:08:00,
2013-02-05 23:13:00,27.0,23.9,28.94,West,270,0.0,0.0,88,0.00,,,0.00,WUHU216WMR100,2013-02-06 04:13:00,
2013-02-05 23:18:00,27.0,23.9,28.94,West,270,0.0,0.0,88,0.00,,,0.00,WUHU216WMR100,2013-02-06 04:18:00,
2013-02-05 23:23:00,27.0,23.9,28.94,West,270,0.0,0.0,88,0.00,,,0.00,WUHU216WMR100,2013-02-06 04:23:00,
2013-02-05 23:28:00,26.8,23.7,28.94,West,270,0.0,0.0,88,0.00,,,0.00,WUHU216WMR100,2013-02-06 04:28:00,
2013-02-05 23:33:00,26.6,23.5,28.94,West,270,0.0,0.0,88,0.00,,,0.00,WUHU216WMR100,2013-02-06 04:33:00,
2013-02-05 23:38:00,26.6,23.5,28.94,West,270,0.0,0.0,88,0.00,,,0.00,WUHU216WMR100,2013-02-06 04:38:00,
2013-02-05 23:43:00,26.6,23.5,28.94,West,270,0.0,0.0,88,0.00,,,0.00,WUHU216WMR100,2013-02-06 04:43:00,
2013-02-05 23:48:00,26.8,23.7,28.94,West,270,0.0,0.0,88,0.00,,,0.00,WUHU216WMR100,2013-02-06 04:48:00,
2013-02-05 23:53:00,26.8,23.7,28.94,West,270,0.0,0.0,88,0.00,,,0.00,WUHU216WMR100,2013-02-06 04:53:00,
2013-02-05 23:58:00,27.0,23.9,28.94,West,270,0.0,0.0,88,0.00,,,0.00,WUHU216WMR100,2013-02-06 04:58:00,